QPF
0.02 0.02 0.02 0.03 0.04 0.04 0.03 0.04 0.05 0.04 0.05 0.06 0.08 0.10 0.09 0.07 0.05 0.04 0.05 0.06 0.06 0.06 0.07 0.09 0.08 0.07 0.08 0.08 0.09 0.09 0.09 0.09 0.10 0.11 0.10 0.08 0.06 0.07 0.07 0.06 0.05 0.05 0.05
0.02 0.02 0.02 0.02 0.02 0.03 0.03 0.04 0.04 0.04 0.06 0.07 0.07 0.08 0.07 0.06 0.04 0.04 0.05 0.05 0.06 0.07 0.06 0.06 0.05 0.05 0.06 0.07 0.07 0.08 0.08 0.09 0.10 0.12 0.12 0.11 0.10 0.08 0.06 0.05 0.03 0.03 0.04
0.03 0.02 0.02 0.02 0.03 0.03 0.03 0.03 0.03 0.04 0.06 0.07 0.08 0.07 0.07 0.06 0.05 0.05 0.06 0.05 0.04 0.06 0.08 0.05 0.04 0.04 0.05 0.06 0.06 0.06 0.06 0.07 0.08 0.09 0.11 0.11 0.12 0.11 0.08 0.05 0.03 0.04 0.05
0.03 0.03 0.04 0.04 0.04 0.03 0.03 0.03 0.03 0.06 0.07 0.06 0.09 0.09 0.08 0.07 0.06 0.06 0.06 0.07 0.07 0.05 0.06 0.05 0.04 0.03 0.04 0.04 0.04 0.04 0.05 0.06 0.06 0.08 0.08 0.09 0.11 0.12 0.09 0.07 0.05 0.05 0.05
0.03 0.03 0.04 0.05 0.05 0.04 0.04 0.04 0.04 0.07 0.12 0.09 0.10 0.09 0.09 0.07 0.06 0.06 0.06 0.06 0.05 0.04 0.03 0.04 0.04 0.03 0.04 0.04 0.04 0.04 0.05 0.06 0.07 0.07 0.08 0.08 0.10 0.12 0.12 0.09 0.06 0.04 0.03
0.03 0.04 0.04 0.04 0.04 0.04 0.03 0.04 0.05 0.05 0.05 0.07 0.08 0.08 0.08 0.07 0.05 0.05 0.05 0.04 0.04 0.03 0.03 0.03 0.03 0.03 0.04 0.05 0.05 0.06 0.07 0.07 0.07 0.07 0.07 0.08 0.09 0.13 0.15 0.11 0.07 0.05 0.03
0.03 0.03 0.04 0.05 0.05 0.04 0.04 0.04 0.05 0.08 0.05 0.04 0.04 0.04 0.04 0.05 0.05 0.05 0.05 0.03 0.02 0.02 0.02 0.02 0.02 0.02 0.03 0.04 0.05 0.05 0.05 0.05 0.04 0.04 0.04 0.05 0.07 0.09 0.11 0.12 0.08 0.05 0.03
0.03 0.04 0.04 0.04 0.04 0.04 0.04 0.04 0.03 0.03 0.03 0.04 0.04 0.03 0.03 0.03 0.03 0.03 0.03 0.02 0.01 0.01 0.01 0.01 0.01 0.01 0.01 0.02 0.02 0.03 0.04 0.04 0.03 0.03 0.03 0.04 0.05 0.05 0.06 0.08 0.07 0.05 0.04
0.02 0.03 0.02 0.03 0.03 0.03 0.03 0.03 0.03 0.03 0.03 0.03 0.03 0.02 0.02 0.03 0.02 0.01 0.02 0.01 0.01 0.01 0.01 0.01 0.01 0.01 0.01 0.02 0.02 0.02 0.02 0.03 0.04 0.04 0.03 0.04 0.04 0.04 0.04 0.05 0.05 0.06 0.05
0.02 0.02 0.01 0.02 0.03 0.03 0.04 0.04 0.04 0.04 0.03 0.03 0.03 0.03 0.03 0.02 0.02 0.02 0.01 0.01 0.01 0.01 0.01 0.01 0.02 0.01 0.02 0.03 0.03 0.03 0.02 0.02 0.02 0.02 0.02 0.02 0.03 0.03 0.04 0.04 0.05 0.06 0.05
0.01 0.01 0.02 0.02 0.03 0.04 0.04 0.05 0.05 0.04 0.03 0.03 0.03 0.03 0.03 0.03 0.03 0.02 0.02 0.02 0.02 0.01 0.01 0.01 0.01 0.01 0.01 0.01 0.02 0.02 0.01 0.02 0.02 0.01 0.01 0.02 0.02 0.03 0.03 0.04 0.05 0.04 0.04
0.01 0.01 0.01 0.02 0.03 0.05 0.07 0.09 0.07 0.04 0.03 0.03 0.03 0.03 0.03 0.03 0.03 0.02 0.02 0.02 0.01 0.01 0.01 0.01 0.01 0.01 0.01 0.01 0.01 0.01 0.02 0.02 0.02 0.02 0.02 0.02 0.01 0.02 0.02 0.03 0.04 0.04 0.04
0.02 0.02 0.02 0.03 0.03 0.03 0.04 0.07 0.08 0.06 0.03 0.03 0.04 0.04 0.03 0.03 0.02 0.02 0.02 0.01 0.01 0.01 0.01 0.01 0.01 0.01 0.02 0.02 0.01 0.02 0.02 0.02 0.03 0.02 0.03 0.03 0.02 0.03 0.03 0.04 0.03 0.03 0.03
0.03 0.03 0.04 0.04 0.03 0.03 0.03 0.03 0.05 0.07 0.07 0.08 0.08 0.05 0.03 0.02 0.02 0.02 0.01 0.01 0.01 0.01 0.02 0.01 0.01 0.01 0.01 0.02 0.02 0.03 0.02 0.02 0.02 0.02 0.02 0.03 0.02 0.02 0.02 0.03 0.03 0.03 0.04
0.02 0.03 0.03 0.03 0.02 0.02 0.02 0.02 0.02 0.02 0.04 0.06 0.06 0.04 0.02 0.02 0.01 0.01 0.01 0.01 0.01 0.01 0.02 0.02 0.01 0.01 0.01 0.01 0.01 0.03 0.03 0.03 0.03 0.02 0.01 0.02 0.02 0.01 0.02 0.03 0.03 0.03 0.03
0.02 0.02 0.03 0.03 0.03 0.02 0.02 0.03 0.03 0.02 0.03 0.03 0.03 0.02 0.02 0.02 0.01 0.01 0.01 0.01 0.01 0.01 0.01 0.01 0.01 0.01 0.00 0.01 0.00 0.01 0.03 0.03 0.03 0.03 0.02 0.01 0.01 0.01 0.02 0.03 0.03 0.03 0.03
0.02 0.02 0.03 0.03 0.02 0.03 0.03 0.04 0.03 0.02 0.02 0.03 0.02 0.02 0.02 0.02 0.01 0.01 0.01 0.01 0.01 0.01 0.01 0.02 0.02 0.01 0.01 0.01 0.00 0.00 0.02 0.04 0.04 0.03 0.02 0.01 0.01 0.01 0.01 0.02 0.02 0.03 0.03
0.03 0.02 0.01 0.02 0.02 0.03 0.02 0.02 0.01 0.01 0.02 0.02 0.01 0.01 0.02 0.02 0.02 0.02 0.02 0.03 0.02 0.01 0.02 0.02 0.02 0.02 0.01 0.01 0.01 0.01 0.02 0.03 0.03 0.02 0.02 0.02 0.02 0.01 0.02 0.02 0.02 0.02 0.02
0.03 0.02 0.01 0.01 0.03 0.02 0.02 0.01 0.02 0.02 0.02 0.02 0.01 0.01 0.01 0.02 0.03 0.02 0.02 0.03 0.03 0.02 0.02 0.02 0.02 0.03 0.02 0.02 0.02 0.02 0.04 0.03 0.02 0.01 0.01 0.01 0.01 0.01 0.02 0.03 0.03 0.02 0.02
0.04 0.03 0.03 0.03 0.03 0.03 0.02 0.03 0.03 0.03 0.03 0.02 0.01 0.01 0.02 0.03 0.02 0.02 0.03 0.03 0.03 0.03 0.03 0.02 0.02 0.03 0.03 0.03 0.02 0.02 0.05 0.05 0.04 0.02 0.01 0.01 0.01 0.01 0.01 0.03 0.04 0.03 0.02
0.06 0.06 0.06 0.07 0.05 0.04 0.03 0.04 0.04 0.03 0.02 0.01 0.01 0.01 0.03 0.03 0.03 0.03 0.03 0.03 0.03 0.04 0.03 0.03 0.02 0.02 0.03 0.02 0.02 0.02 0.04 0.07 0.05 0.04 0.03 0.02 0.01 0.01 0.01 0.02 0.02 0.01 0.01
0.06 0.05 0.06 0.07 0.06 0.05 0.05 0.06 0.05 0.04 0.02 0.02 0.02 0.03 0.03 0.02 0.02 0.03 0.03 0.02 0.03 0.04 0.02 0.03 0.02 0.01 0.03 0.02 0.01 0.02 0.03 0.05 0.05 0.04 0.03 0.02 0.01 0.01 0.01 0.01 0.01 0.01 0.01
0.04 0.04 0.04 0.05 0.06 0.05 0.06 0.07 0.05 0.03 0.03 0.03 0.03 0.03 0.02 0.02 0.02 0.02 0.03 0.02 0.02 0.02 0.01 0.01 0.01 0.01 0.01 0.01 0.00 0.01 0.02 0.03 0.02 0.01 0.02 0.01 0.01 0.01 0.01 0.01 0.01 0.01 0.01
0.04 0.04 0.04 0.05 0.06 0.06 0.05 0.05 0.03 0.02 0.02 0.03 0.03 0.02 0.02 0.03 0.02 0.01 0.01 0.01 0.01 0.01 0.01 0.01 0.00 0.01 0.00 0.00 0.00 0.00 0.01 0.01 0.01 0.01 0.00 0.00 0.00 0.00 0.00 0.00 0.00 0.01 0.01
0.03 0.04 0.04 0.04 0.03 0.04 0.04 0.03 0.02 0.02 0.02 0.03 0.02 0.02 0.02 0.02 0.02 0.01 0.00 0.00 0.00 0.00 0.00 0.00 0.00 0.00 0.00 0.00 0.00 0.00 0.00 0.00 0.00 0.00 0.00 0.00 0.00 0.00 0.00 0.00 0.00 0.00 0.00
0.02 0.03 0.03 0.02 0.02 0.02 0.02 0.02 0.01 0.02 0.02 0.03 0.02 0.01 0.01 0.01 0.01 0.00 0.00 0.00 0.00 0.00 0.00 0.00 0.00 0.00 0.00 0.00 0.00 0.00 0.00 0.00 0.00 0.00 0.00 0.00 0.00 0.00 0.00 0.00 0.00 0.00 0.00
MSLP
1016.18 1017.08 1017.77 1018.21 1018.39 1018.36 1018.19 1017.93 1017.68 1017.47 1017.36 1017.34 1017.41 1017.55 1017.74 1017.94 1018.14 1018.32 1018.47 1018.59 1018.67 1018.71 1018.72 1018.69 1018.63 1018.56 1018.47 1018.40 1018.34 1018.31 1018.31 1018.32 1018.34 1018.34 1018.31 1018.23 1018.10 1017.93 1017.73 1017.55 1017.40 1017.31 1017.30
1016.72 1017.70 1018.44 1018.89 1019.06 1019.00 1018.79 1018.51 1018.23 1018.03 1017.93 1017.93 1018.02 1018.16 1018.33 1018.49 1018.62 1018.72 1018.79 1018.83 1018.85 1018.85 1018.84 1018.80 1018.75 1018.69 1018.61 1018.53 1018.46 1018.41 1018.39 1018.39 1018.40 1018.40 1018.38 1018.31 1018.20 1018.06 1017.90 1017.75 1017.64 1017.59 1017.62
1017.28 1018.31 1019.07 1019.52 1019.69 1019.61 1019.38 1019.08 1018.81 1018.62 1018.54 1018.56 1018.66 1018.80 1018.95 1019.06 1019.13 1019.16 1019.14 1019.11 1019.07 1019.02 1018.98 1018.93 1018.87 1018.80 1018.71 1018.62 1018.54 1018.47 1018.43 1018.41 1018.40 1018.40 1018.39 1018.34 1018.26 1018.16 1018.04 1017.95 1017.90 1017.92 1018.00
1017.84 1018.87 1019.63 1020.09 1020.24 1020.17 1019.94 1019.65 1019.40 1019.23 1019.16 1019.20 1019.30 1019.43 1019.55 1019.62 1019.63 1019.58 1019.50 1019.40 1019.30 1019.21 1019.13 1019.06 1018.98 1018.89 1018.80 1018.69 1018.59 1018.50 1018.44 1018.40 1018.38 1018.38 1018.36 1018.33 1018.28 1018.22 1018.15 1018.12 1018.14 1018.23 1018.38
1018.39 1019.38 1020.11 1020.55 1020.71 1020.65 1020.45 1020.19 1019.96 1019.81 1019.76 1019.80 1019.90 1020.01 1020.08 1020.11 1020.06 1019.96 1019.82 1019.66 1019.51 1019.38 1019.27 1019.17 1019.07 1018.97 1018.86 1018.74 1018.63 1018.52 1018.44 1018.39 1018.36 1018.34 1018.33 1018.30 1018.26 1018.22 1018.20 1018.22 1018.30 1018.45 1018.68
1018.89 1019.81 1020.50 1020.93 1021.09 1021.05 1020.88 1020.66 1020.47 1020.34 1020.31 1020.34 1020.41 1020.49 1020.52 1020.50 1020.40 1020.25 1020.06 1019.87 1019.68 1019.52 1019.38 1019.26 1019.15 1019.03 1018.91 1018.78 1018.66 1018.54 1018.45 1018.38 1018.34 1018.31 1018.27 1018.24 1018.20 1018.16 1018.16 1018.21 1018.34 1018.55 1018.83
1019.35 1020.18 1020.81 1021.20 1021.38 1021.37 1021.24 1021.06 1020.90 1020.80 1020.76 1020.77 1020.82 1020.85 1020.84 1020.77 1020.63 1020.44 1020.23 1020.01 1019.80 1019.62 1019.46 1019.32 1019.20 1019.07 1018.94 1018.81 1018.68 1018.56 1018.46 1018.38 1018.31 1018.26 1018.20 1018.14 1018.07 1018.03 1018.02 1018.08 1018.24 1018.49 1018.83
1019.77 1020.48 1021.03 1021.40 1021.57 1021.59 1021.51 1021.37 1021.24 1021.15 1021.10 1021.09 1021.09 1021.08 1021.03 1020.91 1020.75 1020.54 1020.32 1020.09 1019.87 1019.68 1019.52 1019.38 1019.24 1019.11 1018.97 1018.83 1018.69 1018.57 1018.46 1018.36 1018.28 1018.19 1018.10 1018.00 1017.90 1017.83 1017.80 1017.87 1018.03 1018.32 1018.71
1020.12 1020.72 1021.20 1021.52 1021.69 1021.73 1021.68 1021.59 1021.48 1021.39 1021.33 1021.29 1021.25 1021.20 1021.11 1020.97 1020.79 1020.58 1020.36 1020.14 1019.94 1019.76 1019.60 1019.45 1019.31 1019.16 1019.01 1018.86 1018.72 1018.58 1018.46 1018.34 1018.23 1018.11 1017.97 1017.83 1017.70 1017.59 1017.54 1017.59 1017.76 1018.07 1018.50
1020.41 1020.90 1021.29 1021.57 1021.73 1021.79 1021.76 1021.69 1021.61 1021.53 1021.46 1021.39 1021.32 1021.24 1021.12 1020.98 1020.80 1020.61 1020.41 1020.22 1020.04 1019.87 1019.72 1019.57 1019.42 1019.26 1019.10 1018.93 1018.77 1018.61 1018.46 1018.32 1018.17 1018.01 1017.84 1017.66 1017.49 1017.35 1017.28 1017.32 1017.50 1017.83 1018.29
1020.60 1020.99 1021.30 1021.54 1021.68 1021.74 1021.74 1021.70 1021.63 1021.56 1021.49 1021.42 1021.34 1021.24 1021.13 1020.99 1020.84 1020.68 1020.52 1020.36 1020.22 1020.07 1019.93 1019.78 1019.62 1019.44 1019.25 1019.06 1018.87 1018.68 1018.50 1018.32 1018.13 1017.94 1017.73 1017.51 1017.31 1017.15 1017.07 1017.11 1017.30 1017.64 1018.14
1020.67 1020.97 1021.22 1021.41 1021.53 1021.60 1021.62 1021.61 1021.57 1021.53 1021.47 1021.41 1021.34 1021.25 1021.16 1021.05 1020.94 1020.82 1020.71 1020.59 1020.48 1020.36 1020.23 1020.08 1019.90 1019.70 1019.48 1019.26 1019.03 1018.80 1018.57 1018.35 1018.13 1017.90 1017.66 1017.43 1017.21 1017.04 1016.96 1017.01 1017.20 1017.57 1018.09
1020.60 1020.83 1021.02 1021.17 1021.29 1021.36 1021.41 1021.44 1021.45 1021.44 1021.42 1021.39 1021.35 1021.30 1021.24 1021.17 1021.11 1021.04 1020.97 1020.91 1020.83 1020.73 1020.60 1020.45 1020.26 1020.03 1019.78 1019.52 1019.24 1018.97 1018.71 1018.45 1018.19 1017.92 1017.66 1017.41 1017.19 1017.03 1016.96 1017.02 1017.23 1017.60 1018.12
1020.39 1020.57 1020.71 1020.84 1020.95 1021.05 1021.14 1021.22 1021.28 1021.33 1021.36 1021.38 1021.39 1021.38 1021.37 1021.35 1021.33 1021.31 1021.28 1021.25 1021.19 1021.11 1021.00 1020.84 1020.63 1020.39 1020.11 1019.82 1019.51 1019.20 1018.90 1018.60 1018.31 1018.02 1017.74 1017.49 1017.27 1017.12 1017.07 1017.13 1017.35 1017.71 1018.23
1020.08 1020.22 1020.34 1020.45 1020.58 1020.70 1020.84 1020.97 1021.10 1021.21 1021.31 1021.39 1021.45 1021.49 1021.52 1021.55 1021.56 1021.57 1021.58 1021.56 1021.52 1021.45 1021.34 1021.18 1020.97 1020.71 1020.43 1020.11 1019.79 1019.46 1019.13 1018.81 1018.49 1018.19 1017.90 1017.65 1017.44 1017.30 1017.25 1017.32 1017.53 1017.88 1018.36
1019.71 1019.83 1019.94 1020.06 1020.20 1020.36 1020.55 1020.74 1020.93 1021.11 1021.26 1021.40 1021.51 1021.59 1021.66 1021.71 1021.75 1021.77 1021.78 1021.77 1021.74 1021.67 1021.56 1021.40 1021.20 1020.96 1020.68 1020.37 1020.05 1019.72 1019.39 1019.06 1018.73 1018.43 1018.14 1017.88 1017.67 1017.54 1017.49 1017.56 1017.75 1018.06 1018.48
1019.37 1019.47 1019.59 1019.72 1019.89 1020.09 1020.32 1020.56 1020.80 1021.03 1021.23 1021.40 1021.54 1021.65 1021.73 1021.79 1021.83 1021.85 1021.85 1021.84 1021.80 1021.73 1021.62 1021.48 1021.30 1021.08 1020.84 1020.56 1020.27 1019.97 1019.66 1019.34 1019.03 1018.72 1018.43 1018.18 1017.97 1017.83 1017.77 1017.82 1017.97 1018.23 1018.58
1019.12 1019.24 1019.36 1019.52 1019.71 1019.94 1020.19 1020.46 1020.72 1020.97 1021.19 1021.38 1021.53 1021.64 1021.71 1021.76 1021.78 1021.78 1021.77 1021.74 1021.69 1021.62 1021.53 1021.41 1021.26 1021.10 1020.90 1020.69 1020.46 1020.20 1019.94 1019.66 1019.37 1019.07 1018.79 1018.53 1018.32 1018.16 1018.08 1018.08 1018.19 1018.38 1018.66
1019.03 1019.17 1019.32 1019.50 1019.70 1019.93 1020.19 1020.45 1020.71 1020.95 1021.16 1021.32 1021.45 1021.54 1021.60 1021.62 1021.62 1021.60 1021.56 1021.51 1021.46 1021.39 1021.32 1021.23 1021.14 1021.03 1020.91 1020.77 1020.62 1020.44 1020.23 1020.00 1019.75 1019.48 1019.20 1018.94 1018.71 1018.52 1018.40 1018.37 1018.41 1018.55 1018.75
1019.13 1019.30 1019.47 1019.66 1019.86 1020.08 1020.31 1020.53 1020.75 1020.94 1021.11 1021.24 1021.33 1021.39 1021.41 1021.41 1021.39 1021.35 1021.30 1021.24 1021.19 1021.13 1021.08 1021.04 1021.00 1020.96 1020.91 1020.86 1020.79 1020.69 1020.55 1020.38 1020.16 1019.92 1019.65 1019.38 1019.13 1018.91 1018.75 1018.66 1018.65 1018.72 1018.86
1019.39 1019.60 1019.80 1019.98 1020.16 1020.34 1020.52 1020.68 1020.82 1020.95 1021.05 1021.12 1021.17 1021.19 1021.19 1021.18 1021.15 1021.10 1021.05 1021.00 1020.96 1020.92 1020.90 1020.90 1020.91 1020.93 1020.96 1020.99 1020.99 1020.97 1020.90 1020.78 1020.60 1020.38 1020.12 1019.84 1019.56 1019.31 1019.11 1018.97 1018.90 1018.91 1019.00
1019.78 1020.03 1020.23 1020.41 1020.55 1020.67 1020.77 1020.85 1020.91 1020.96 1020.99 1021.00 1021.01 1021.01 1021.00 1020.98 1020.96 1020.93 1020.90 1020.87 1020.85 1020.84 1020.85 1020.88 1020.93 1021.00 1021.09 1021.17 1021.24 1021.27 1021.25 1021.18 1021.03 1020.83 1020.57 1020.28 1019.98 1019.69 1019.45 1019.26 1019.15 1019.11 1019.15
1020.22 1020.50 1020.71 1020.86 1020.95 1021.01 1021.03 1021.02 1021.00 1020.96 1020.93 1020.89 1020.87 1020.86 1020.86 1020.86 1020.87 1020.88 1020.88 1020.89 1020.89 1020.91 1020.94 1020.99 1021.07 1021.17 1021.28 1021.39 1021.50 1021.56 1021.58 1021.53 1021.41 1021.21 1020.95 1020.65 1020.33 1020.02 1019.74 1019.51 1019.36 1019.29 1019.30
1020.65 1020.93 1021.13 1021.25 1021.31 1021.30 1021.25 1021.16 1021.06 1020.96 1020.87 1020.81 1020.78 1020.77 1020.79 1020.83 1020.88 1020.93 1020.98 1021.02 1021.06 1021.09 1021.14 1021.20 1021.28 1021.38 1021.49 1021.61 1021.72 1021.80 1021.82 1021.78 1021.67 1021.47 1021.21 1020.91 1020.57 1020.23 1019.93 1019.68 1019.51 1019.41 1019.39
1020.98 1021.26 1021.45 1021.54 1021.56 1021.50 1021.39 1021.25 1021.10 1020.96 1020.84 1020.76 1020.73 1020.74 1020.78 1020.86 1020.95 1021.05 1021.13 1021.21 1021.27 1021.31 1021.36 1021.41 1021.47 1021.55 1021.64 1021.74 1021.83 1021.90 1021.91 1021.87 1021.75 1021.56 1021.30 1020.99 1020.65 1020.31 1020.00 1019.74 1019.55 1019.44 1019.41
1021.18 1021.44 1021.62 1021.69 1021.68 1021.60 1021.47 1021.30 1021.12 1020.96 1020.83 1020.74 1020.71 1020.73 1020.80 1020.91 1021.03 1021.15 1021.26 1021.35 1021.41 1021.46 1021.49 1021.52 1021.55 1021.59 1021.65 1021.71 1021.77 1021.80 1021.80 1021.75 1021.63 1021.44 1021.19 1020.89 1020.56 1020.23 1019.93 1019.68 1019.49 1019.38 1019.35
Thickness
5720 5718 5714 5712 5707 5703 5700 5697 5694 5693 5691 5689 5687 5685 5683 5682 5681 5679 5677 5678 5678 5678 5679 5680 5681 5683 5684 5684 5684 5684 5684 5684 5685 5684 5682 5684 5686 5687 5686 5685 5684 5683 5682
5713 5710 5707 5703 5699 5695 5693 5690 5687 5685 5683 5681 5680 5679 5676 5675 5673 5671 5671 5670 5670 5670 5672 5671 5673 5675 5676 5677 5677 5677 5677 5678 5679 5676 5673 5672 5674 5677 5678 5677 5676 5674 5674
5708 5703 5699 5696 5693 5688 5686 5683 5680 5678 5676 5675 5674 5672 5670 5667 5665 5664 5662 5662 5662 5662 5663 5664 5665 5667 5668 5669 5669 5669 5670 5669 5671 5672 5669 5665 5665 5665 5667 5667 5666 5665 5665
5706 5700 5695 5690 5686 5682 5679 5675 5672 5670 5669 5668 5666 5663 5659 5657 5656 5655 5654 5653 5653 5653 5655 5656 5657 5659 5660 5661 5661 5662 5662 5662 5662 5664 5665 5664 5663 5659 5656 5656 5656 5656 5655
5704 5697 5691 5686 5681 5677 5673 5668 5665 5663 5661 5659 5657 5655 5652 5650 5648 5647 5646 5645 5644 5645 5646 5647 5648 5650 5651 5652 5652 5653 5653 5654 5654 5654 5655 5656 5656 5656 5652 5648 5646 5646 5645
5699 5691 5685 5680 5675 5671 5666 5662 5658 5655 5653 5650 5648 5645 5643 5641 5639 5638 5637 5637 5636 5636 5637 5639 5639 5640 5642 5642 5643 5644 5645 5646 5646 5646 5647 5647 5647 5647 5647 5643 5640 5637 5635
5692 5684 5678 5672 5667 5663 5658 5654 5650 5646 5644 5642 5639 5637 5635 5633 5631 5630 5629 5628 5628 5628 5628 5629 5630 5631 5633 5634 5635 5636 5637 5638 5638 5639 5639 5640 5641 5641 5641 5638 5634 5630 5628
5686 5679 5672 5666 5661 5655 5650 5646 5642 5638 5635 5632 5629 5627 5627 5625 5622 5621 5620 5619 5619 5619 5619 5620 5621 5623 5624 5625 5626 5627 5628 5630 5631 5632 5633 5633 5634 5634 5634 5632 5629 5624 5621
5678 5672 5665 5660 5654 5648 5642 5638 5634 5629 5626 5623 5620 5618 5616 5615 5613 5612 5611 5610 5609 5610 5610 5611 5612 5613 5614 5616 5617 5618 5619 5621 5622 5624 5625 5626 5627 5627 5627 5627 5626 5622 5616
5670 5664 5658 5652 5646 5640 5634 5630 5626 5622 5618 5615 5613 5610 5607 5606 5604 5603 5601 5600 5600 5600 5601 5602 5603 5604 5605 5607 5609 5610 5611 5612 5614 5616 5617 5617 5618 5619 5620 5620 5620 5619 5616
5662 5656 5650 5644 5638 5633 5627 5622 5618 5614 5610 5606 5604 5601 5599 5597 5595 5594 5593 5592 5592 5592 5593 5593 5594 5595 5597 5598 5600 5601 5602 5604 5605 5607 5608 5609 5610 5611 5612 5612 5612 5612 5610
5656 5649 5642 5636 5630 5625 5619 5615 5610 5606 5602 5599 5596 5593 5590 5589 5587 5585 5585 5585 5585 5585 5585 5585 5586 5587 5589 5590 5592 5593 5595 5596 5596 5598 5599 5600 5602 5602 5603 5603 5604 5604 5603
5647 5640 5634 5628 5622 5617 5612 5608 5604 5600 5596 5593 5589 5585 5582 5580 5578 5577 5577 5577 5577 5577 5577 5577 5578 5579 5581 5582 5584 5585 5586 5587 5588 5589 5590 5591 5592 5592 5594 5595 5595 5596 5596
5640 5633 5627 5620 5615 5610 5605 5601 5597 5593 5590 5586 5581 5578 5575 5573 5571 5570 5570 5570 5570 5569 5569 5570 5570 5571 5572 5572 5574 5576 5577 5579 5580 5581 5582 5582 5583 5584 5585 5586 5587 5588 5587
5634 5627 5620 5615 5609 5604 5600 5596 5591 5587 5584 5580 5576 5572 5570 5568 5566 5564 5564 5563 5563 5563 5563 5563 5563 5563 5563 5562 5564 5567 5570 5572 5573 5574 5574 5574 5575 5576 5578 5579 5579 5580 5580
5628 5622 5616 5609 5604 5600 5595 5590 5586 5582 5579 5575 5572 5568 5566 5563 5561 5559 5559 5557 5556 5556 5556 5556 5555 5555 5554 5554 5557 5560 5563 5566 5566 5567 5568 5569 5569 5569 5570 5571 5573 5574 5574
5623 5617 5611 5605 5600 5595 5590 5586 5582 5578 5574 5571 5568 5565 5562 5560 5558 5556 5554 5552 5551 5550 5550 5550 5549 5549 5547 5549 5551 5554 5557 5559 5560 5561 5563 5565 5564 5564 5565 5566 5568 5568 5570
5620 5614 5608 5601 5596 5591 5587 5583 5579 5575 5571 5568 5565 5562 5559 5556 5554 5551 5549 5547 5547 5546 5545 5545 5545 5544 5543 5543 5546 5548 5552 5554 5555 5556 5557 5558 5557 5558 5559 5562 5564 5565 5565
5617 5610 5604 5598 5591 5586 5582 5579 5575 5571 5568 5565 5562 5559 5556 5553 5550 5548 5545 5544 5543 5543 5543 5542 5542 5541 5540 5540 5542 5544 5548 5550 5550 5551 5551 5552 5552 5553 5555 5558 5559 5560 5559
5613 5606 5599 5592 5586 5581 5578 5574 5571 5568 5565 5563 5561 5558 5554 5551 5548 5546 5543 5542 5542 5542 5542 5541 5540 5539 5538 5538 5540 5542 5545 5546 5546 5546 5546 5546 5547 5549 5551 5553 5554 5555 5556
5607 5601 5595 5588 5583 5578 5574 5570 5568 5565 5564 5562 5559 5556 5553 5550 5547 5545 5543 5541 5541 5541 5540 5540 5539 5539 5537 5537 5538 5539 5541 5542 5544 5545 5544 5543 5544 5546 5548 5549 5551 5551 5552
5602 5597 5590 5584 5580 5576 5571 5567 5564 5563 5562 5559 5557 5554 5552 5550 5548 5545 5543 5542 5541 5541 5540 5540 5540 5539 5538 5538 5538 5538 5539 5540 5541 5542 5542 5542 5543 5545 5547 5549 5550 5551 5553
5599 5593 5587 5581 5577 5574 5570 5566 5563 5562 5559 5557 5555 5553 5551 5550 5548 5546 5544 5544 5543 5543 5543 5543 5543 5542 5541 5539 5538 5538 5539 5539 5539 5540 5541 5542 5544 5545 5548 5550 5551 5553 5554
5595 5590 5585 5580 5576 5573 5570 5566 5563 5561 5558 5555 5554 5553 5551 5550 5549 5547 5547 5547 5546 5545 5546 5546 5545 5545 5543 5541 5540 5539 5539 5539 5539 5540 5542 5544 5546 5548 5550 5552 5555 5556 5558
5594 5589 5585 5580 5576 5573 5569 5567 5564 5561 5558 5556 5555 5554 5553 5552 5550 5549 5546 5546 5544 5544 5543 5544 5545 5545 5543 5538 5538 5539 5540 5540 5539 5541 5545 5548 5551 5553 5555 5558 5560 5561 5562
5593 5589 5585 5582 5578 5575 5571 5568 5565 5562 5559 5557 5556 5556 5556 5555 5554 5551 5550 5547 5546 5544 5544 5544 5543 5543 5542 5541 5541 5542 5542 5542 5543 5544 5548 5553 5556 5559 5561 5563 5565 5566 5567